Back to catalog

STARLINK-35472

AliveCommunicationsVLEO
NORAD 65913·PAYLOAD·🇺🇸 United States

Launched Oct 8, 2025 from Vandenberg Space Force Base

Loading…

Next Passes (next 24 hours)

TLE

FreshSource: CelesTrak SupGP

Epoch: Sep 14, 2026, 15:35 UTC

1 65913C 25225D   26257.64979167 -.00006050  00000+0 -17881-3 0  2578
2 65913  53.1603   5.1375 0001340  71.6840 115.7377 15.34384919    18

Track STARLINK-35472 in real time with AllMySat

Download on the App Store